CDT,Max TemperatureF,Mean TemperatureF,Min TemperatureF,Max Dew PointF,MeanDew PointF,Min DewpointF,Max Humidity, Mean Humidity, Min Humidity, Max Sea Level PressureIn, Mean Sea Level PressureIn, Min Sea Level PressureIn, Max VisibilityMiles, Mean VisibilityMiles, Min VisibilityMiles, Max Wind SpeedMPH, Mean Wind SpeedMPH, Max Gust SpeedMPH,PrecipitationIn, CloudCover, Events, WindDirDegrees
2011-10-1,63,48,32,37,33,29,100,65,29,30.42,30.33,30.27,10,10,10,13,5,16,0.00,0,,151
2011-10-2,76,56,35,41,36,32,89,56,23,30.30,30.24,30.16,10,10,10,14,8,23,0.00,0,,189
2011-10-3,80,62,44,45,41,38,76,51,25,30.27,30.22,30.18,10,10,10,13,6,17,0.00,0,,172
2011-10-4,81,64,47,45,40,33,82,50,18,30.25,30.18,30.12,10,10,9,20,11,26,0.00,0,,167
2011-10-5,85,70,55,46,44,42,61,42,23,30.16,30.12,30.07,10,10,9,18,10,25,0.00,0,,169
2011-10-6,80,66,51,50,46,42,77,52,26,30.17,30.10,30.05,10,10,10,23,12,29,0.00,0,,158
2011-10-7,84,73,61,55,52,48,72,55,37,30.08,30.02,29.94,10,10,10,33,20,45,0.00,0,,170
2011-10-8,83,74,64,56,52,48,63,51,39,30.17,30.10,30.01,10,10,10,23,14,31,0.00,1,,182
2011-10-9,81,68,54,54,51,49,83,58,33,30.26,30.21,30.17,10,10,9,17,9,23,0.00,0,,162
2011-10-10,75,63,51,55,48,44,86,61,35,30.16,30.05,29.96,10,10,2,20,9,28,T,2,Rain,169
2011-10-11,75,64,52,58,52,49,100,71,41,29.97,29.92,29.85,10,7,2,17,9,22,T,2,,167
2011-10-12,69,63,56,58,55,52,93,80,66,29.84,29.74,29.66,10,9,5,25,9,31,0.02,7,Rain,111
2011-10-13,60,53,45,55,50,39,100,81,62,29.67,29.65,29.64,10,7,2,26,12,33,0.14,6,Rain,303
2011-10-14,58,52,45,45,41,36,93,70,47,29.84,29.72,29.65,10,10,10,32,19,40,0.00,4,,294
2011-10-15,60,50,39,43,38,31,92,63,33,29.93,29.88,29.82,10,10,9,29,14,36,0.07,3,Rain,289
2011-10-16,58,50,41,43,36,30,89,63,36,29.92,29.88,29.83,10,10,10,32,15,39,T,2,,287
2011-10-17,58,48,37,32,29,26,76,54,32,29.91,29.89,29.86,10,10,10,28,15,35,0.00,0,,284
2011-10-18,45,40,34,35,33,28,85,71,57,30.04,29.97,29.86,10,10,10,20,12,24,0.00,7,,335
2011-10-19,49,44,39,36,34,31,85,72,58,30.08,30.03,29.99,10,10,10,23,14,30,T,8,Rain,2
2011-10-20,53,43,33,34,30,22,85,58,30,30.00,29.94,29.90,10,10,10,26,15,35,0.00,3,,336
2011-10-21,60,45,29,34,29,25,85,58,31,30.11,30.06,30.02,10,10,10,14,8,18,0.00,0,,247
2011-10-22,60,48,35,39,34,30,85,59,33,30.14,30.08,30.01,10,10,9,13,6,16,0.00,0,,326
2011-10-23,68,51,33,47,40,29,93,65,37,30.00,29.91,29.80,10,10,8,25,12,29,0.05,3,,236
2011-10-24,65,51,36,43,37,30,100,64,28,30.10,30.03,29.98,10,10,6,15,8,18,0.00,1,,235
2011-10-25,58,50,41,45,41,37,96,78,59,29.99,29.87,29.78,10,10,7,23,15,29,0.00,4,,53
2011-10-26,52,46,40,37,35,30,86,68,50,30.11,30.06,29.99,10,10,10,15,9,20,0.00,5,,6
2011-10-27,51,41,30,36,31,25,100,73,45,30.15,30.09,30.04,10,9,4,16,7,20,0.01,3,Rain,294
2011-10-28,55,42,29,30,25,21,78,54,30,30.14,30.08,30.02,10,10,10,23,10,26,T,3,,246
2011-10-29,53,39,25,28,22,17,75,51,26,30.11,30.05,29.96,10,10,10,17,7,21,0.00,1,,215
2011-10-30,52,47,41,39,33,23,86,62,38,29.95,29.87,29.80,10,10,10,24,15,29,T,8,Rain,247
2011-10-31,52,42,31,37,33,30,92,68,44,30.07,30.02,29.97,10,9,5,15,9,18,0.00,3,,259